User: anonymous   Login
Location: Iola
(37.9240°N, 95.4000°W)
Time: 08:13:57
(UTC-05:00)
Language:

Meteor 2-10 Rocket - Orbit

View from above orbital plane
View from above orbital plane
View from above satellite
View from above satellite

Ground track
Ground track

The orbit data is extracted from the following two-line orbital elements,

1 14453U 83109B   15143.47419645  .00000079  00000-0  26467-4 0  9997
2 14453 081.1647 146.5108 0106211 089.8493 271.4856 14.24596862639922
Epoch (UTC): 23 May 2015 11:22:50
Eccentricity: 0.0106211
inclination: 81.1647°
perigee height: 733 km
apogee height: 886 km
right ascension of ascending node: 146.5108°
argument of perigee: 89.8493°
revolutions per day: 14.24596862
mean anomaly at epoch: 271.4856°
orbit number at epoch: 63992

The dashed part of the orbit path shows where the satellite is in the earth's shadow,  

DLR